Location: Bonn
(50.7330°N, 7.1000°E)
Time: 17:12:40
(UTC+02:00)

Iridium 67 - Visible Passes

Search period start: 27 August 2016 00:00
Search period end: 06 September 2016 00:00
Orbit: 776 x 779 km, 86.4° (Epoch: 27 August)

Date Brightness Start Highest point End Pass type
(mag) Time Alt. Az. Time Alt. Az. Time Alt. Az.
27 Aug 7.2 01:19:36 23° ENE 01:19:36 23° ENE 01:23:35 10° NNE visible
27 Aug 5.8 03:00:05 56° WNW 03:00:05 56° WNW 03:05:01 10° N visible
28 Aug 7.7 00:46:17 14° ENE 00:46:22 14° ENE 00:49:02 10° NE visible
28 Aug 5.6 02:26:46 74° NNE 02:26:46 74° NNE 02:31:32 10° N visible
28 Aug 7.4 04:07:15 16° WNW 04:07:46 16° WNW 04:10:56 10° NNW visible
29 Aug 6.2 01:53:27 49° ENE 01:53:27 49° ENE 01:57:52 10° NNE visible
29 Aug 6.9 03:33:56 25° WNW 03:33:56 25° WNW 03:38:11 10° NNW visible
30 Aug 6.9 01:20:08 30° ENE 01:20:08 30° ENE 01:24:01 10° NNE visible
30 Aug 6.3 03:00:37 40° WNW 03:00:37 40° WNW 03:05:00 10° N visible
31 Aug 7.5 00:46:48 19° ENE 00:46:48 19° ENE 00:49:51 10° NNE visible
31 Aug 5.9 02:27:17 57° NNW 02:27:17 57° NNW 02:31:37 10° N visible
31 Aug 7.7 04:07:46 12° WNW 04:08:10 12° WNW 04:10:03 10° NW visible
01 Sep 7.9 00:13:29 11° ENE 00:13:29 11° ENE 00:14:45 10° NE visible
01 Sep 6.1 01:53:57 54° NNE 01:53:57 54° NNE 01:58:04 10° N visible
01 Sep 7.3 03:34:26 19° WNW 03:34:26 19° WNW 03:37:53 10° NNW visible
02 Sep 6.7 01:20:37 36° NE 01:20:37 36° NE 01:24:20 10° NNE visible
02 Sep 6.8 03:01:06 29° WNW 03:01:06 29° WNW 03:04:55 10° NNW visible
03 Sep 7.2 00:47:17 24° ENE 00:47:17 24° ENE 00:50:22 10° NNE visible
03 Sep 6.4 02:27:45 42° NW 02:27:45 42° NW 02:31:39 10° N visible
04 Sep 7.7 00:13:56 15° ENE 00:13:56 15° ENE 00:15:59 10° NE visible
04 Sep 6.3 01:54:24 49° N 01:54:24 49° N 01:58:11 10° N visible
04 Sep 7.6 03:34:53 14° WNW 03:34:53 14° WNW 03:37:20 10° NNW visible
05 Sep 6.6 01:21:03 40° NNE 01:21:03 40° NNE 01:24:34 10° N visible
05 Sep 7.3 03:01:32 22° NW 03:01:32 22° NW 03:04:43 10° NNW visible
